Location: Bijele Vode
(45.2833°N, 16.2000°E)
Time: 10:43:28
(UTC+00:00)

CZ-2C R/B - Pass Details

Date: 20 January 2021
Orbit: 390 x 584 km, 35.0° (Epoch: 27 February)

Event Time Altitude Azimuth Distance (km) Brightness Sun altitude
Exits shadow 05:07:57 - 222° (SW) 2,527 4.4 -13.8°
Reaches altitude 10° 05:10:44 10° 199° (SSW) 1,741 3.8 -13.3°
Maximum altitude 05:12:48 14° 168° (SSE) 1,486 3.9 -13.0°
Drops below altitude 10° 05:14:49 10° 136° (SE) 1,679 4.8 -12.7°
Sets 05:17:49 0° 110° (ESE) 2,510 6.8 -12.1°
